Hourly Data Report for October 06, 2017

All times are specified in Local Standard Time (LST). Add 1 hour to adjust for Daylight Saving Time where and when it is observed.

PETAWAWA AWOS 2
ONTARIO

45°57'00.000" N
77°19'00.000" W
130.10 m
6106396
71625
YWA

Download Data

Hourly Data (October 2017)
Hourly Data Report for October 6, 2017
Temp Definition
°C
Dew Point Temp Definition
°C
Rel Hum Definition
%
Wind Dir Definition
10's deg

Wind Spd Definition
km/h
Visibility Definition
km
Stn Press Definition
kPa
Hmdx Definition


Wind Chill Definition


Weather Definition


TIME
00:00 8.7 8.0 95   0 14.5 100.08     LegendNANA
01:00 7.9 7.0 94   0 14.5 100.08     LegendNANA
02:00 7.2 6.8 97   0 14.5 100.06     LegendNANA
03:00 5.8 5.4 97 25 4 14.5 100.09     LegendNANA
04:00 6.3 5.9 97   0 14.5 100.11     LegendNANA
05:00 4.4 4.2 99   0 1.3 100.13     LegendNANA
06:00 4.3 3.8 96   0 14.5 100.17     LegendNANA
07:00 5.8 5.3 97   0 14.5 100.22     LegendNANA
08:00 9.6 8.6 94   0 14.5 100.24     LegendNANA
09:00 12.5 8.8 78 32 7 14.5 100.27     LegendNANA
10:00 14.0 8.8 71 31 11 14.5 100.26     LegendNANA
11:00 15.1 6.7 57 32 15 14.5 100.23     LegendNANA
12:00 16.3 6.1 51 34 13 14.5 100.19     LegendNANA
13:00 17.5 5.9 46 28 9 14.5 100.14     LegendNANA
14:00 17.7 5.6 45 32 7 14.5 100.11     LegendNANA
15:00 17.4 7.0 50   0 14.5 100.07     LegendNANA
16:00 16.8 6.5 51 3 11 14.5 100.03     LegendNANA
17:00 16.0 6.1 52 36 6 14.5 100.03     LegendNANA
18:00 12.1 8.6 79   0 14.5 100.02     LegendNANA
19:00 10.0 7.3 83   0 14.5 100.09     LegendNANA
20:00 7.7 6.7 93 27 4 14.5 100.10     LegendNANA
21:00 7.3 6.2 93   0 14.5 100.15     LegendNANA
22:00 6.0 5.1 94 30 4 14.5 100.13     LegendNANA
23:00 6.1 5.5 96   0 14.5 100.11     LegendNANA

Notes on Data Quality.

Legend

  • E = Estimated
  • M = Missing
  • NA = Not Available
  • ‡ = Partner data that is not subject to review by the National Climate Archives
Date modified: